Wilmington, NC

4:21 AM EST on February 21, 2017 (GMT -0500)
Wilmington International

Weather History for KILM - September, 2013

Change the Weather History Date:

Monday, September 23, 2013

  Actual Average Record
Temperature  
Mean Temperature 68 °F 73 °F  
Max Temperature 77 °F 82 °F 94 °F (1980)
Min Temperature 58 °F 63 °F 46 °F (1999)
Degree Days  
Heating Degree Days 0 0  
Month to date heating degree days 0 0  
Since 1 July heating degree days 0 0  
Cooling Degree Days 3 8  
Month to date cooling degree days 254 247  
Year to date cooling degree days 1744 1870  
Growing Degree Days 18 (Base 50)    
Moisture  
Dew Point 56 °F    
Average Humidity 65    
Maximum Humidity 90    
Minimum Humidity 40    
Precipitation  
Precipitation 0.00 in 0.25 in 3.05 in (1923)
Month to date precipitation 1.03 6.14  
Year to date precipitation 43.52 45.11  
Sea Level Pressure  
Sea Level Pressure 29.99 in    
Wind  
Wind Speed 7 mph (NNE)    
Max Wind Speed 16 mph    
Max Gust Speed 23 mph    
Visibility 10 miles    
Events      
T = Trace of Precipitation, MM = Missing Value Source: NWS Daily Summary

Daily Weather History Graph

Daily Weather History Graph

Search for Another Location

Airport or City:

Trip Planner

Search our weather history database for the weather conditions in past years. The results will help you decide how hot, cold, wet, or windy it might be!

Date:

Astronomy

Sep. 23, 2013 Rise Set
Actual Time 7:00 AM EDT 7:06 PM EDT
Civil Twilight 6:35 AM EDT 7:31 PM EDT
Nautical Twilight 6:06 AM EDT 8:00 PM EDT
Astronomical Twilight 5:36 AM EDT 8:30 PM EDT
Moon 9:49 PM EDT (9/23) 11:05 AM EDT (9/23)
Length of Visible Light 12h 56m
Length of Day
12h 06m
Waning Gibbous, 81% of the Moon is Illuminated
Sep 23
Waning Gibbous
Sep 26
Last Quarter
Oct 4
New
Oct 11
First Quarter
Oct 18
Full

Hourly Weather History & Observations

Time (EDT) Temp. Dew Point Humidity Pressure Visibility Wind Dir Wind Speed Gust Speed Precip Events Conditions
12:53 AM 68.0 °F 60.1 °F 76% 29.87 in 10.0 mi North 8.1 mph - N/A   Overcast
1:53 AM 66.0 °F 60.1 °F 81% 29.88 in 10.0 mi North 10.4 mph - N/A   Scattered Clouds
2:53 AM 63.0 °F 57.9 °F 84% 29.88 in 10.0 mi North 3.5 mph - N/A   Clear
3:53 AM 62.1 °F 57.0 °F 84% 29.90 in 10.0 mi North 4.6 mph - N/A   Clear
4:53 AM 61.0 °F 57.0 °F 87% 29.90 in 10.0 mi North 3.5 mph - N/A   Clear
5:53 AM 60.1 °F 55.9 °F 86% 29.92 in 10.0 mi North 3.5 mph - N/A   Clear
6:53 AM 59.0 °F 55.9 °F 90% 29.95 in 10.0 mi North 4.6 mph - N/A   Clear
7:53 AM 62.1 °F 55.9 °F 80% 29.97 in 10.0 mi NNE 11.5 mph - N/A   Clear
8:53 AM 66.0 °F 55.9 °F 70% 29.99 in 10.0 mi NNE 13.8 mph - N/A   Clear
9:53 AM 69.1 °F 55.0 °F 61% 30.02 in 10.0 mi North 12.7 mph - N/A   Clear
10:53 AM 72.0 °F 55.0 °F 55% 30.03 in 10.0 mi NNE 11.5 mph - N/A   Clear
11:53 AM 73.0 °F 54.0 °F 51% 30.03 in 10.0 mi NE 11.5 mph 23.0 mph N/A   Clear
12:53 PM 75.0 °F 54.0 °F 48% 30.03 in 10.0 mi NNE 10.4 mph 21.9 mph N/A   Clear
1:53 PM 75.9 °F 54.0 °F 46% 30.02 in 10.0 mi NE 12.7 mph - N/A   Partly Cloudy
2:53 PM 77.0 °F 52.0 °F 42% 30.01 in 10.0 mi NNW 9.2 mph - N/A   Clear
3:53 PM 75.9 °F 52.0 °F 43% 30.00 in 10.0 mi NNE 6.9 mph - N/A   Partly Cloudy
4:53 PM 75.9 °F 52.0 °F 43% 30.01 in 10.0 mi Variable 6.9 mph - N/A   Partly Cloudy
5:53 PM 73.9 °F 54.0 °F 50% 30.01 in 10.0 mi North 5.8 mph - N/A   Clear
6:53 PM 70.0 °F 55.0 °F 59% 30.02 in 10.0 mi North 5.8 mph - N/A   Clear
7:53 PM 66.9 °F 57.0 °F 70% 30.03 in 10.0 mi Calm Calm - N/A   Clear
8:53 PM 61.0 °F 57.0 °F 87% 30.05 in 10.0 mi NNE 3.5 mph - N/A   Clear
9:53 PM 61.0 °F 57.0 °F 87% 30.06 in 10.0 mi NNE 3.5 mph - N/A   Clear
10:53 PM 60.1 °F 55.9 °F 86% 30.07 in 10.0 mi Calm Calm - N/A   Clear
11:53 PM 59.0 °F 55.0 °F 87% 30.07 in 10.0 mi Calm Calm - N/A   Clear